Flag for Namibia Weather past 2 weeks in Windhoek, Namibia

Now
61 °F

Refreshingly cool.


Feels Like: 61 °F
Forecast: 52 / 87 °F
Wind: 1 mph from Southeast

Location: Windhoek

Current Time: Sep 24, 2014 at 3:12:16 AM

Latest Report: Sep 24, 2014 at 2:00 AM


Visibility: N/A

Pressure: 30.24 "Hg

Humidity: 48%

Dew point: 41 °F

Location of WindhoekLocation

Historic Weather in Windhoek — Graph

°F

Windhoek temperature yesterday

Maximum temperature yesterday: 82 °F (at 3:00 PM)
Minimum temperature yesterday: 59 °F (at 4:00 AM)
Average temperature yesterday: 70 °F

Past Weeks' High & Low Weather Summary

 TemperatureHumidityPressure
High88 °F (Sep 11, 3:00 PM)64% (Sep 14, 5:00 AM)30.36 "Hg (Sep 14, 5:00 AM)
Low48 °F (Sep 19, 6:00 AM)3% (Sep 18, 1:00 PM)30.07 "Hg (Sep 17, 3:00 PM)
Average71 °F23%30.22 "Hg
* Reported Sep 9 1:00 AM — Sep 24 1:00 AM, Windhoek, Weather by CustomWeather, © 2014

Note: Actual official high and low records may vary slightly from our data, if they occured in-between our weather recording intervals... More about our weather records

Advertising

Windhoek weather history for previous 24 hours

 ConditionsComfort  
Time TempWeatherWind HumidityBarometerVisibility
1:00 AM
Sep 24
64 °FMild.1 mph46%30.27 "HgN/A
12:00 AM64 °FMild.3 mph46%30.27 "HgN/A
11:00 PM
Sep 23
66 °FMild.1 mph43%30.27 "HgN/A
10:00 PM70 °FMild.6 mph38%30.27 "HgN/A
9:00 PM73 °FMild.6 mph29%30.24 "HgN/A
8:00 PM75 °FPassing clouds.5 mph25%30.21 "HgN/A
7:00 PM77 °FPassing clouds.6 mph22%30.18 "HgN/A
6:00 PM81 °FPassing clouds.7 mph20%30.18 "HgN/A
4:00 PM82 °FScattered clouds.13 mph17%30.15 "HgN/A
3:00 PM82 °FPassing clouds.10 mph20%30.18 "HgN/A
2:00 PM81 °FPassing clouds.10 mph21%30.21 "HgN/A
1:00 PM81 °FSunny.13 mph21%30.24 "Hg10 mi
12:00 PM79 °FSunny.14 mph23%30.27 "Hg10 mi
11:00 AM77 °FSunny.13 mph26%30.27 "Hg10 mi
10:00 AM72 °FSunny.9 mph33%30.27 "Hg10 mi
9:00 AM66 °FScattered clouds.5 mph37%30.27 "HgN/A
8:00 AM63 °FMild.7 mph45%30.30 "HgN/A
6:00 AM61 °FClear.5 mph45%30.21 "Hg10 mi
5:00 AM59 °FRefreshingly cool.6 mph51%30.21 "HgN/A
4:00 AM59 °FRefreshingly cool.6 mph51%30.18 "HgN/A
3:00 AM61 °FRefreshingly cool.6 mph48%30.21 "HgN/A
Weather by CustomWeather, © 2014

See weather overviewHow to use our weather pages